Terminal Aerodrome Forecast
Issued by NWS

Current Version | Previous Version | Text Only | Print | Product List | Glossary On
Versions: 1 2 3 4 5 6 7 8 9 10 11 12 13 14 15 16 17 18 19 20 21 22 23 24 25 26 27 28
208 FTUS41 KOKX 251122 TAFGON TAF KGON 251122Z 2512/2612 VRB03KT 6SM -RA VCTS SCT060CB BKN120 FM251400 21008KT P6SM BKN070 FM251700 18009KT P6SM BKN070 BKN250 TEMPO 2522/2602 4SM TSRA BKN040CB FM260200 23005KT P6SM BKN090 BKN250 PROB30 2602/2605 4SM TSRA BKN040CB BKN090 FM260500 VRB03KT P6SM FEW130 SCT250 FM260800 VRB02KT 5SM BR SCT250=

USA.gov is the U.S. government's official web portal to all federal, state and local government web resources and services.